Weather History for KASH - December, 2011

Change the Weather History Date:

Friday, December 30, 2011

  Actual Average (KLWM) Record (KLWM)
Temperature  
Mean Temperature 27 °F -  
Max Temperature 32 °F 36 °F - (-1)
Min Temperature 22 °F 20 °F - (-1)
Degree Days  
Heating Degree Days 38    
Moisture  
Dew Point 17 °F    
Average Humidity 62    
Maximum Humidity 72    
Minimum Humidity 52    
Precipitation  
Precipitation 0.00 in - - ()
Sea Level Pressure  
Sea Level Pressure 30.10 in    
Wind  
Wind Speed 0 mph (NNW)    
Max Wind Speed 6 mph    
Max Gust Speed -    
Visibility 10 miles    
Events      
Averages and records for this station are not official NWS values.
T = Trace of Precipitation, MM = Missing Value Source: NWS Daily Summary

Daily Weather History Graph

Daily Weather History Graph

Search for Another Location

Airport or City:

Trip Planner

Search our weather history database for the weather conditions in past years. The results will help you decide how hot, cold, wet, or windy it might be!

Date:

Astronomy

Dec. 30, 2011 Rise Set
Actual Time 7:16 AM EST 4:20 PM EST
Civil Twilight 6:44 AM EST 4:52 PM EST
Nautical Twilight 6:08 AM EST 5:28 PM EST
Astronomical Twilight 5:34 AM EST 6:02 PM EST
Moon 10:25 AM EST (12/30) 11:03 PM EST (12/30)
Length of Visible Light 10h 08m
Length of Day
9h 04m
Waxing Crescent, 35% of the Moon is Illuminated
Dec 30
Waxing Crescent
Jan 1
First Quarter
Jan 9
Full
Jan 16
Last Quarter
Jan 23
New

Hourly Weather History & Observations

Time (EST) Temp. Windchill Dew Point Humidity Pressure Visibility Wind Dir Wind Speed Gust Speed Precip Events Conditions
12:51 AM 22.1 °F - 12.0 °F 65% 30.05 in 10.0 mi Calm Calm - N/A   Clear
1:51 AM 24.1 °F - 14.0 °F 65% 30.06 in 10.0 mi Calm Calm - N/A   Overcast
2:51 AM 24.1 °F - 13.1 °F 63% 30.06 in 10.0 mi Calm Calm - N/A   Mostly Cloudy
3:51 AM 25.2 °F - 14.0 °F 63% 30.06 in 10.0 mi Calm Calm - N/A   Overcast
4:51 AM 25.2 °F - 15.1 °F 66% 30.07 in 10.0 mi Calm Calm - N/A   Overcast
5:51 AM 24.1 °F - 15.1 °F 69% 30.07 in 10.0 mi Calm Calm - N/A   Partly Cloudy
6:51 AM 24.1 °F - 16.2 °F 72% 30.09 in 10.0 mi Calm Calm - N/A   Overcast
7:43 AM 24.8 °F - 15.8 °F 69% 30.09 in 10.0 mi Calm Calm - N/A   Overcast
7:51 AM 25.2 °F - 16.2 °F 69% 30.12 in 10.0 mi Calm Calm - N/A   Overcast
8:51 AM 26.1 °F - 16.2 °F 66% 30.12 in 10.0 mi Calm Calm - N/A   Overcast
9:51 AM 27.1 °F - 16.2 °F 63% 30.13 in 10.0 mi Calm Calm - N/A   Overcast
10:22 AM 28.4 °F - 15.8 °F 59% 30.11 in 10.0 mi Calm Calm - N/A   Overcast
10:51 AM 29.1 °F - 16.2 °F 58% 30.11 in 10.0 mi Calm Calm - N/A   Scattered Clouds
11:51 AM 30.0 °F - 15.1 °F 54% 30.09 in 10.0 mi Calm Calm - N/A   Clear
12:26 PM 30.2 °F - 15.8 °F 55% 30.06 in 10.0 mi Calm Calm - N/A   Mostly Cloudy
12:33 PM 30.2 °F - 15.8 °F 55% 30.06 in 10.0 mi Calm Calm - N/A   Scattered Clouds
1:51 PM 32.9 °F - 17.1 °F 52% 30.09 in 10.0 mi Calm Calm - N/A   Mostly Cloudy
2:51 PM 32.9 °F - 18.1 °F 55% 30.10 in 10.0 mi Calm Calm - N/A   Overcast
3:51 PM 32.9 °F 27.5 °F 18.1 °F 55% 30.12 in 10.0 mi North 5.8 mph - N/A   Overcast
4:51 PM 31.1 °F - 18.1 °F 59% 30.12 in 10.0 mi Calm Calm - N/A   Scattered Clouds
5:51 PM 31.1 °F - 19.0 °F 61% 30.13 in 10.0 mi Calm Calm - N/A   Overcast
6:51 PM 31.1 °F - 20.1 °F 64% 30.14 in 10.0 mi Calm Calm - N/A   Mostly Cloudy
7:51 PM 31.1 °F - 20.1 °F 64% 30.14 in 10.0 mi Calm Calm - N/A   Clear
8:30 PM 30.2 °F 26.7 °F 19.4 °F 64% 30.12 in 10.0 mi NNW 3.5 mph - N/A   Mostly Cloudy
8:51 PM 31.1 °F - 20.1 °F 64% 30.14 in 10.0 mi Calm Calm - N/A   Overcast
9:51 PM 31.1 °F 27.7 °F 20.1 °F 64% 30.13 in 10.0 mi North 3.5 mph - N/A   Overcast
10:51 PM 32.0 °F 26.4 °F 21.0 °F 64% 30.13 in 10.0 mi North 5.8 mph - N/A   Overcast
11:51 PM 31.1 °F - 21.0 °F 66% 30.10 in 10.0 mi Calm Calm - N/A   Overcast